Morris, IL

10:22 PM CST on January 23, 2018 (GMT -0600)
Morris

Weather History for KC09 - December, 2012

Change the Weather History Date:

Thursday, December 20, 2012

  Actual Average (KARR) Record (KARR)
Temperature  
Mean Temperature 41 °F -  
Max Temperature 50 °F 29 °F 51 °F (2015)
Min Temperature 32 °F 14 °F -11 °F (2000)
Degree Days  
Heating Degree Days 24    
Moisture  
Dew Point 41 °F    
Average Humidity 98    
Maximum Humidity 100    
Minimum Humidity 87    
Precipitation  
Precipitation 0.75 in - - ()
Sea Level Pressure  
Sea Level Pressure 29.30 in    
Wind  
Wind Speed 19 mph (SSE)    
Max Wind Speed 40 mph    
Max Gust Speed 54 mph    
Visibility 6 miles    
Events Rain , Snow    
Averages and records for this station are not official NWS values.
T = Trace of Precipitation, MM = Missing Value Source: NWS Daily Summary

Daily Weather History Graph

Daily Weather History Graph

Search for Another Location

Airport or City:

Trip Planner

Search our weather history database for the weather conditions in past years. The results will help you decide how hot, cold, wet, or windy it might be!

Date:

Astronomy

Dec. 20, 2012 Rise Set
Actual Time 7:16 AM CST 4:26 PM CST
Civil Twilight 6:44 AM CST 4:58 PM CST
Nautical Twilight 6:09 AM CST 5:33 PM CST
Astronomical Twilight 5:36 AM CST 6:07 PM CST
Moon 11:48 AM CST (12/20) No Moon Set
Length of Visible Light 10h 13m
Length of Day
9h 10m
First Quarter, 55% of the Moon is Illuminated
Dec 20
First Quarter
Dec 28
Full
Jan 4
Last Quarter
Jan 11
New
Jan 18
First Quarter

Hourly Weather History & Observations

Time (CST) Temp. Windchill Dew Point Humidity Pressure Visibility Wind Dir Wind Speed Gust Speed Precip Events Conditions
12:15 AM 40.3 °F 31.3 °F 40.3 °F 100% 29.72 in 2.0 mi East 18.4 mph 23.0 mph 0.07 in Rain Light Rain
12:35 AM 40.5 °F 32.5 °F 40.5 °F 100% 29.70 in 3.0 mi East 15.0 mph - 0.12 in Rain Light Rain
12:55 AM 41.0 °F 32.8 °F 41.0 °F 100% 29.68 in 2.5 mi East 16.1 mph 24.2 mph N/A Rain Light Rain
1:15 AM 40.5 °F 31.2 °F 40.5 °F 100% 29.65 in 3.0 mi East 19.6 mph 25.3 mph 0.01 in Rain Rain
1:35 AM 40.8 °F 32.0 °F 40.8 °F 100% 29.63 in 2.0 mi East 18.4 mph 26.5 mph 0.05 in Rain Light Rain
1:55 AM 41.0 °F 31.1 °F 41.0 °F 100% 29.60 in 2.5 mi East 23.0 mph 29.9 mph 0.11 in Rain Rain
2:15 AM 41.2 °F 31.6 °F 41.2 °F 100% 29.58 in 3.0 mi East 21.9 mph - 0.02 in Rain Heavy Rain
2:35 AM 41.4 °F 32.7 °F 41.4 °F 100% 29.56 in 2.5 mi East 18.4 mph 25.3 mph 0.07 in Rain Light Rain
2:55 AM 42.3 °F 34.1 °F 42.3 °F 100% 29.54 in 4.0 mi East 17.3 mph 28.8 mph 0.08 in   Overcast
3:15 AM 42.6 °F 33.8 °F 42.6 °F 100% 29.52 in 3.0 mi ESE 20.7 mph 29.9 mph 0.01 in Rain Rain
3:35 AM 42.4 °F 33.3 °F 42.4 °F 100% 29.50 in 2.0 mi ESE 21.9 mph 27.6 mph 0.07 in Rain Light Rain
3:55 AM 42.4 °F 34.1 °F 42.4 °F 100% 29.48 in 1.5 mi SE 18.4 mph 27.6 mph 0.16 in Rain Light Rain
4:15 AM 42.8 °F 34.8 °F 42.8 °F 100% 29.46 in 3.0 mi ESE 17.3 mph 21.9 mph 0.02 in Rain Rain
4:35 AM 43.0 °F 35.1 °F 43.0 °F 100% 29.43 in 2.5 mi ESE 17.3 mph - 0.09 in Rain Rain
4:55 AM 43.3 °F 37.2 °F 43.3 °F 100% 29.41 in 3.0 mi East 11.5 mph 16.1 mph 0.15 in Rain Heavy Rain
5:15 AM 43.7 °F 37.7 °F 43.7 °F 100% 29.41 in 3.0 mi East 11.5 mph - 0.05 in Rain Rain
5:35 AM 44.2 °F 39.2 °F 44.2 °F 100% 29.40 in 3.0 mi East 9.2 mph - 0.12 in Rain Heavy Rain
5:55 AM 44.6 °F 38.4 °F 44.6 °F 100% 29.37 in 3.0 mi East 12.7 mph - 0.19 in Rain Rain
6:15 AM 45.0 °F 37.9 °F 45.0 °F 100% 29.32 in 4.0 mi ESE 16.1 mph 21.9 mph 0.01 in Rain Light Rain
6:35 AM 45.5 °F 38.3 °F 45.5 °F 100% 29.28 in 5.0 mi ESE 17.3 mph - 0.01 in   Overcast
6:55 AM 47.3 °F - 47.3 °F 100% 29.30 in 10.0 mi SE 18.4 mph 23.0 mph 0.01 in   Overcast
7:15 AM 47.5 °F - 47.5 °F 100% 29.28 in 10.0 mi SE 15.0 mph - N/A   Overcast
7:35 AM 48.2 °F - 48.2 °F 100% 29.27 in 10.0 mi SE 17.3 mph 20.7 mph N/A   Overcast
7:55 AM 48.2 °F - 48.2 °F 100% 29.25 in 10.0 mi SE 17.3 mph 31.1 mph N/A   Overcast
8:15 AM 48.0 °F - 48.0 °F 100% 29.25 in 10.0 mi SE 16.1 mph 20.7 mph N/A   Overcast
8:35 AM 48.2 °F - 48.0 °F 99% 29.23 in 10.0 mi SE 16.1 mph 25.3 mph N/A   Overcast
8:55 AM 48.4 °F - 48.2 °F 99% 29.21 in 10.0 mi ESE 20.7 mph 26.5 mph N/A   Overcast
9:15 AM 48.2 °F - 48.2 °F 100% 29.20 in 10.0 mi ESE 19.6 mph 23.0 mph N/A   Overcast
9:35 AM 47.8 °F - 47.8 °F 100% 29.19 in 7.0 mi SE 18.4 mph 24.2 mph N/A   Overcast
9:55 AM 47.8 °F - 47.7 °F 99% 29.17 in 7.0 mi SE 17.3 mph 25.3 mph N/A Rain Light Rain
10:15 AM 48.2 °F - 48.2 °F 100% 29.15 in 7.0 mi SE 20.7 mph 26.5 mph N/A   Light Drizzle
10:35 AM 48.2 °F - 48.2 °F 100% 29.12 in 5.0 mi SE 17.3 mph - N/A   Overcast
10:55 AM 48.4 °F - 48.4 °F 100% 29.10 in 4.0 mi SE 16.1 mph 20.7 mph N/A   Overcast
11:15 AM 48.9 °F - 48.9 °F 100% 29.08 in 2.0 mi SSE 12.7 mph 20.7 mph N/A Rain Light Rain
11:35 AM 50.0 °F - 50.0 °F 100% 29.06 in 5.0 mi SSE 12.7 mph - N/A   Overcast
11:55 AM 50.5 °F - 50.5 °F 100% 29.05 in 7.0 mi South 16.1 mph 24.2 mph N/A Rain Light Rain
12:15 PM 50.4 °F - 49.6 °F 97% 29.03 in 10.0 mi SW 16.1 mph 25.3 mph N/A   Overcast
12:35 PM 50.0 °F - 49.1 °F 97% 29.02 in 7.0 mi SW 10.4 mph - N/A Rain Light Rain
12:55 PM 49.5 °F - 47.5 °F 93% 29.04 in 10.0 mi SW 20.7 mph 28.8 mph N/A   Mostly Cloudy
1:15 PM 48.0 °F - 46.2 °F 93% 29.05 in 10.0 mi SSW 24.2 mph 27.6 mph N/A Rain Light Rain
1:35 PM 46.4 °F 39.5 °F 42.6 °F 87% 29.06 in 10.0 mi SSW 17.3 mph 27.6 mph N/A   Overcast
1:55 PM 45.7 °F 37.6 °F 43.3 °F 92% 29.05 in 10.0 mi SSW 21.9 mph 31.1 mph N/A   Overcast
2:15 PM 44.1 °F 36.2 °F 42.3 °F 93% 29.06 in 10.0 mi SSW 18.4 mph 25.3 mph N/A   Overcast
2:35 PM 43.2 °F 35.6 °F 42.1 °F 96% 29.06 in 10.0 mi SSW 16.1 mph 20.7 mph N/A   Overcast
2:55 PM 42.6 °F 35.2 °F 41.4 °F 95% 29.06 in 10.0 mi SSW 15.0 mph - N/A   Overcast
3:15 PM 42.1 °F 35.7 °F 41.4 °F 97% 29.07 in 7.0 mi SW 11.5 mph - N/A   Drizzle
3:35 PM 41.4 °F 34.3 °F 41.4 °F 100% 29.08 in 2.5 mi SW 12.7 mph - 0.01 in Rain Rain
3:55 PM 41.0 °F 35.8 °F 41.0 °F 100% 29.09 in 2.5 mi SW 8.1 mph - 0.01 in   Heavy Drizzle
4:15 PM 39.2 °F 30.8 °F 39.2 °F 100% 29.10 in 4.0 mi NNW 15.0 mph 19.6 mph 0.01 in Rain Rain
4:35 PM 36.9 °F 27.5 °F 36.5 °F 99% 29.13 in 10.0 mi NNW 16.1 mph 31.1 mph 0.01 in Rain Light Rain
4:55 PM 36.1 °F 25.0 °F 35.6 °F 98% 29.14 in 10.0 mi NNW 21.9 mph 32.2 mph 0.02 in   Overcast
5:15 PM 34.5 °F 23.8 °F 34.5 °F 100% 29.17 in 1.8 mi NNW 18.4 mph 28.8 mph N/A Snow Light Snow
5:35 PM 34.2 °F 22.6 °F 34.2 °F 100% 29.20 in 1.5 mi NW 20.7 mph 32.2 mph N/A Snow Light Snow
5:55 PM 34.0 °F 21.8 °F 34.0 °F 100% 29.22 in 1.8 mi NW 23.0 mph 34.5 mph 0.01 in Snow Light Snow
6:15 PM 34.0 °F 22.1 °F 34.0 °F 100% 29.24 in 2.0 mi NW 21.9 mph 33.4 mph N/A Snow Light Snow
6:35 PM 34.2 °F 21.5 °F 34.0 °F 99% 29.26 in 5.0 mi NW 25.3 mph 34.5 mph N/A Snow Light Snow
6:55 PM 34.5 °F 21.3 °F 33.3 °F 95% 29.29 in 7.0 mi NW 28.8 mph 42.6 mph N/A Snow Light Snow
7:15 PM 34.0 °F 20.1 °F 33.8 °F 99% 29.31 in 3.0 mi NW 31.1 mph 40.3 mph 0.01 in Snow Light Snow
7:35 PM 33.8 °F 20.3 °F 33.8 °F 100% 29.33 in 2.0 mi NW 28.8 mph 39.1 mph 0.01 in Snow Light Snow
7:55 PM 33.3 °F 18.7 °F 33.3 °F 100% 29.33 in 2.5 mi NW 33.4 mph 41.4 mph 0.01 in Snow Light Snow
8:15 PM 33.3 °F 19.3 °F 33.1 °F 99% 29.35 in 5.0 mi WNW 29.9 mph 46.0 mph N/A Snow Light Snow
8:35 PM 32.7 °F 17.3 °F 32.2 °F 98% 29.36 in 4.0 mi WNW 36.8 mph 44.9 mph N/A Snow Light Snow
8:55 PM 32.5 °F 16.9 °F 32.0 °F 98% 29.38 in 4.0 mi WNW 38.0 mph 50.6 mph N/A Snow Light Snow
9:15 PM 32.4 °F 17.0 °F 32.0 °F 99% 29.39 in 3.0 mi WNW 35.7 mph 44.9 mph N/A Snow Light Snow
9:35 PM 32.2 °F 17.6 °F 31.8 °F 99% 29.41 in 5.0 mi NW 31.1 mph 54.1 mph N/A Snow Light Snow
9:55 PM 32.2 °F 17.2 °F 31.3 °F 96% 29.43 in 10.0 mi WNW 33.4 mph 51.8 mph N/A   Overcast
10:15 PM 32.0 °F 16.5 °F 31.3 °F 97% 29.45 in 5.0 mi WNW 35.7 mph 50.6 mph N/A Snow Light Snow
10:35 PM 32.0 °F 15.8 °F 31.1 °F 96% 29.46 in 5.0 mi WNW 40.3 mph 46.0 mph N/A Snow Light Snow
10:55 PM 32.0 °F 16.3 °F 31.1 °F 96% 29.48 in 5.0 mi WNW 36.8 mph 42.6 mph N/A Snow Light Snow
11:15 PM 32.0 °F 16.7 °F 30.6 °F 94% 29.49 in 7.0 mi WNW 34.5 mph 49.5 mph N/A Snow Light Snow
11:35 PM 32.0 °F 16.7 °F 30.2 °F 93% 29.51 in 10.0 mi WNW 34.5 mph 44.9 mph N/A   Overcast
11:55 PM 32.0 °F 16.2 °F 29.8 °F 92% 29.52 in 10.0 mi WNW 38.0 mph 44.9 mph N/A   Overcast